• In Deutschland
  • Länderverzeichnis
  • Für 7 Tage
  • Wassertemperatur
  • Satellitenkarten
  • Wetterkarte
  • Widgets
  • user-avatar
    Anmelden

    Stündliche Wetter Constantine

    Heute, 24 September, Sonntag

    Zeit Temperatur Niederschläge Wind Luftdruck Luftfeuchtigkeit
    00:00 +24°C° 0 mm 1 m/S 712 mmHg 50%
    01:00 +23°C° 0,1 mm 1 m/S 712 mmHg 53%
    02:00 +23°C° 0,1 mm 1 m/S 712 mmHg 55%
    03:00 +22°C° 0,1 mm 1 m/S 712 mmHg 58%
    04:00 +22°C° 0,2 mm 1 m/S 712 mmHg 62%
    05:00 +22°C° 0,2 mm 1 m/S 712 mmHg 66%
    06:00 +21°C° 0,2 mm 1 m/S 712 mmHg 70%
    07:00 +22°C° 0 mm 1 m/S 713 mmHg 66%
    08:00 +24°C° 0 mm 1 m/S 713 mmHg 62%
    09:00 +25°C° 0 mm 2 m/S 714 mmHg 57%
    10:00 +25°C° 0 mm 2 m/S 714 mmHg 55%
    11:00 +26°C° 0 mm 3 m/S 714 mmHg 52%
    12:00 +27°C° 0 mm 3 m/S 714 mmHg 49%
    13:00 +27°C° 0 mm 3 m/S 714 mmHg 49%
    14:00 +27°C° 0 mm 4 m/S 713 mmHg 48%
    15:00 +27°C° 0 mm 4 m/S 713 mmHg 48%
    16:00 +26°C° 0 mm 3 m/S 713 mmHg 53%
    17:00 +24°C° 0 mm 3 m/S 713 mmHg 58%
    18:00 +22°C° 0 mm 3 m/S 713 mmHg 63%
    19:00 +21°C° 0 mm 2 m/S 713 mmHg 68%
    20:00 +21°C° 0 mm 2 m/S 713 mmHg 72%
    21:00 +21°C° 0 mm 1 m/S 714 mmHg 77%
    22:00 +20°C° 0 mm 1 m/S 713 mmHg 79%
    23:00 +20°C° 0 mm 1 m/S 713 mmHg 80%

    Morgen, 25 September, Montag

    Zeit Temperatur Niederschläge Wind Luftdruck Luftfeuchtigkeit
    00:00 +20°C° 0 mm 1 m/S 713 mmHg 82%
    01:00 +19°C° 0 mm 1 m/S 713 mmHg 82%
    02:00 +19°C° 0 mm 1 m/S 712 mmHg 82%
    03:00 +17°C° 0 mm 0 m/S 712 mmHg 82%
    04:00 +19°C° 0 mm 1 m/S 712 mmHg 80%
    05:00 +19°C° 0 mm 1 m/S 712 mmHg 78%
    06:00 +19°C° 0 mm 1 m/S 712 mmHg 76%
    07:00 +19°C° 0 mm 0 m/S 712 mmHg 65%
    08:00 +21°C° 0 mm 0 m/S 713 mmHg 54%
    09:00 +23°C° 0 mm 0 m/S 714 mmHg 43%
    10:00 +24°C° 0 mm 0 m/S 714 mmHg 37%
    11:00 +27°C° 0 mm 1 m/S 713 mmHg 32%
    12:00 +28°C° 0 mm 1 m/S 713 mmHg 26%
    13:00 +28°C° 0 mm 2 m/S 713 mmHg 25%
    14:00 +28°C° 0 mm 2 m/S 713 mmHg 25%
    15:00 +29°C° 0 mm 3 m/S 712 mmHg 24%
    16:00 +27°C° 0 mm 3 m/S 712 mmHg 29%
    17:00 +26°C° 0 mm 2 m/S 712 mmHg 34%
    18:00 +25°C° 0 mm 2 m/S 712 mmHg 39%
    19:00 +24°C° 0 mm 2 m/S 712 mmHg 43%
    20:00 +23°C° 0 mm 1 m/S 713 mmHg 47%
    21:00 +22°C° 0 mm 1 m/S 713 mmHg 52%
    22:00 +22°C° 0 mm 1 m/S 713 mmHg 53%
    23:00 +21°C° 0 mm 1 m/S 712 mmHg 54%

    übermorgen, 26 September, Dienstag

    Zeit Temperatur Niederschläge Wind Luftdruck Luftfeuchtigkeit
    00:00 +21°C° 0 mm 1 m/S 712 mmHg 55%
    01:00 +20°C° 0 mm 1 m/S 712 mmHg 55%
    02:00 +18°C° 0 mm 0 m/S 712 mmHg 55%
    03:00 +18°C° 0 mm 0 m/S 711 mmHg 55%
    04:00 +20°C° 0 mm 1 m/S 712 mmHg 55%
    05:00 +20°C° 0 mm 1 m/S 712 mmHg 54%
    06:00 +20°C° 0 mm 1 m/S 712 mmHg 53%
    07:00 +22°C° 0 mm 1 m/S 712 mmHg 46%
    08:00 +24°C° 0 mm 1 m/S 713 mmHg 38%
    09:00 +24°C° 0 mm 0 m/S 713 mmHg 31%
    10:00 +27°C° 0 mm 1 m/S 713 mmHg 28%
    11:00 +28°C° 0 mm 1 m/S 713 mmHg 24%
    12:00 +29°C° 0 mm 1 m/S 713 mmHg 21%
    13:00 +30°C° 0 mm 2 m/S 713 mmHg 21%
    14:00 +30°C° 0 mm 2 m/S 713 mmHg 21%
    15:00 +30°C° 0 mm 3 m/S 712 mmHg 21%
    16:00 +28°C° 0 mm 2 m/S 712 mmHg 25%
    17:00 +27°C° 0 mm 2 m/S 712 mmHg 30%
    18:00 +26°C° 0 mm 2 m/S 712 mmHg 34%
    19:00 +25°C° 0 mm 2 m/S 712 mmHg 37%
    20:00 +24°C° 0 mm 1 m/S 713 mmHg 40%
    21:00 +23°C° 0 mm 1 m/S 713 mmHg 43%
    22:00 +23°C° 0 mm 1 m/S 713 mmHg 44%
    23:00 +22°C° 0 mm 1 m/S 712 mmHg 44%

    27 September, Mittwoch

    Zeit Temperatur Niederschläge Wind Luftdruck Luftfeuchtigkeit
    00:00 +20°C° 0 mm 0 m/S 712 mmHg 45%
    01:00 +19°C° 0 mm 0 m/S 712 mmHg 45%
    02:00 +19°C° 0 mm 0 m/S 712 mmHg 46%
    03:00 +19°C° 0 mm 0 m/S 712 mmHg 47%
    04:00 +19°C° 0 mm 0 m/S 712 mmHg 47%
    05:00 +19°C° 0 mm 0 m/S 712 mmHg 47%
    06:00 +19°C° 0 mm 0 m/S 712 mmHg 47%
    07:00 +22°C° 0 mm 1 m/S 713 mmHg 43%
    08:00 +24°C° 0 mm 1 m/S 713 mmHg 39%
    09:00 +26°C° 0 mm 2 m/S 714 mmHg 34%
    10:00 +27°C° 0 mm 2 m/S 714 mmHg 33%
    11:00 +28°C° 0 mm 3 m/S 714 mmHg 32%
    12:00 +28°C° 0 mm 3 m/S 714 mmHg 31%
    13:00 +28°C° 0 mm 4 m/S 714 mmHg 33%
    14:00 +28°C° 0 mm 4 m/S 714 mmHg 35%
    15:00 +28°C° 0 mm 4 m/S 713 mmHg 37%
    16:00 +26°C° 0 mm 4 m/S 713 mmHg 46%
    17:00 +23°C° 0 mm 4 m/S 714 mmHg 54%
    18:00 +22°C° 0 mm 4 m/S 714 mmHg 63%
    19:00 +21°C° 0 mm 3 m/S 714 mmHg 68%
    20:00 +20°C° 0 mm 2 m/S 714 mmHg 73%
    21:00 +20°C° 0 mm 1 m/S 715 mmHg 78%
    22:00 +20°C° 0 mm 1 m/S 714 mmHg 80%
    23:00 +20°C° 0 mm 1 m/S 714 mmHg 82%

    28 September, Donnerstag

    Zeit Temperatur Niederschläge Wind Luftdruck Luftfeuchtigkeit
    00:00 +19°C° 0 mm 1 m/S 714 mmHg 84%
    01:00 +19°C° 0 mm 1 m/S 714 mmHg 86%
    02:00 +18°C° 0 mm 1 m/S 714 mmHg 88%
    03:00 +18°C° 0 mm 1 m/S 714 mmHg 89%
    04:00 +18°C° 0 mm 1 m/S 714 mmHg 90%
    05:00 +18°C° 0 mm 1 m/S 714 mmHg 90%
    06:00 +18°C° 0 mm 1 m/S 714 mmHg 90%
    07:00 +19°C° 0 mm 1 m/S 715 mmHg 80%
    08:00 +19°C° 0 mm 2 m/S 715 mmHg 70%
    09:00 +20°C° 0 mm 2 m/S 716 mmHg 60%
    10:00 +21°C° 0 mm 2 m/S 716 mmHg 54%
    11:00 +22°C° 0 mm 3 m/S 716 mmHg 48%
    12:00 +25°C° 0 mm 3 m/S 716 mmHg 42%
    13:00 +25°C° 0 mm 3 m/S 715 mmHg 42%
    14:00 +25°C° 0 mm 4 m/S 715 mmHg 43%
    15:00 +25°C° 0 mm 4 m/S 715 mmHg 44%
    16:00 +22°C° 0 mm 4 m/S 715 mmHg 51%
    17:00 +21°C° 0 mm 3 m/S 715 mmHg 57%
    18:00 +20°C° 0 mm 3 m/S 715 mmHg 64%
    19:00 +19°C° 0 mm 2 m/S 715 mmHg 68%
    20:00 +18°C° 0 mm 2 m/S 715 mmHg 72%
    21:00 +19°C° 0 mm 1 m/S 715 mmHg 75%
    22:00 +18°C° 0 mm 1 m/S 715 mmHg 78%
    23:00 +18°C° 0 mm 1 m/S 715 mmHg 80%

    29 September, Freitag

    Zeit Temperatur Niederschläge Wind Luftdruck Luftfeuchtigkeit
    00:00 +18°C° 0 mm 1 m/S 715 mmHg 82%
    01:00 +16°C° 0 mm 1 m/S 714 mmHg 84%
    02:00 +16°C° 0 mm 1 m/S 714 mmHg 85%
    03:00 +16°C° 0 mm 1 m/S 714 mmHg 87%
    04:00 +15°C° 0 mm 1 m/S 714 mmHg 87%
    05:00 +15°C° 0 mm 1 m/S 714 mmHg 87%
    06:00 +15°C° 0 mm 1 m/S 714 mmHg 87%
    07:00 +18°C° 0 mm 1 m/S 714 mmHg 77%
    08:00 +19°C° 0 mm 1 m/S 715 mmHg 66%
    09:00 +21°C° 0 mm 1 m/S 715 mmHg 56%
    10:00 +21°C° 0 mm 2 m/S 715 mmHg 50%
    11:00 +23°C° 0 mm 2 m/S 715 mmHg 45%
    12:00 +24°C° 0 mm 2 m/S 715 mmHg 39%
    13:00 +24°C° 0 mm 3 m/S 714 mmHg 39%
    14:00 +25°C° 0 mm 3 m/S 714 mmHg 39%
    15:00 +25°C° 0 mm 4 m/S 714 mmHg 39%
    16:00 +22°C° 0 mm 3 m/S 714 mmHg 47%
    17:00 +21°C° 0 mm 3 m/S 714 mmHg 54%
    18:00 +20°C° 0 mm 3 m/S 714 mmHg 61%
    19:00 +19°C° 0 mm 2 m/S 714 mmHg 66%
    20:00 +18°C° 0 mm 2 m/S 714 mmHg 71%
    21:00 +19°C° 0 mm 1 m/S 714 mmHg 76%
    22:00 +18°C° 0 mm 1 m/S 714 mmHg 78%
    23:00 +18°C° 0 mm 1 m/S 714 mmHg 80%
    Mehr zeigen